THOR ABLESTAR DEB, 5265

Orbit data source: Space-Track

THOR ABLESTAR DEB, 5265 is space debris in LEO originally from a launch on Fri, 13 Aug 1965 UTC launched from the Air Force Western Test Range (AFWTR). Debris objects in space refer to the collection of defunct objects orbiting the Earth. Examples of debris include non-operational satellites, rocket bodies, and fragments generated from explosions, collisions, or faulty payload assembly.

Loading next visibility...
Identifier
5265, 1965-065Q
Orbit
LEO
Country
Flag of USUS
Related business
Manufacturer
Unknown
Mission
Spacecraft
Bus & Motor
Unknown
Mass
Unknown
Launch date (UTC)
1965-08-13 (60 years ago)
Launch vehicle
Unknown
Launch site
Air Force Western Test Range (AFWTR)
Object type
Payload
Rocket body
Debris
Shape & HBR
Unknown shape, 0.1 m
Radar Cross Section
Small (<0.1 m²)

Expand to show TLE details & history
Last TLE update: 1 day ago

TLE from 1 day ago
0 THOR ABLESTAR DEB
1 05265U 65065Q   25352.85015596  .00000183  00000-0  30599-3 0  9997
2 05265  90.1396 303.3506 0042364 145.6047 242.8744 13.42434462948425
Epoch: 2025-12-18T20:24Z
TLE epoch observation values (Epoch: 2025-12-18T20:24:13.474Z)
Latitude
28.08722°
Longitude
-90.47941°
Altitude
1,118.282 km
Speed
7.289 km/s
True Right ascension
20h 13m 06s
True Declination
27° 57' 05"
Sunlit
Object was in daylight at epoch
Visualization orbit readout
Latitude
Unknown
Longitude
Unknown
Altitude
Unknown
Speed
Unknown
Apparent Right ascension
Unknown
Apparent Declination
Unknown
Sunlit
N/A
Visualization observer readout
Local Sidereal Time
01:51:03
Azimuth
Unknown
Elevation
Unknown
Doppler factor
Unknown
Orbital elements
Apogee altitude
1,128.954 km
Perigee altitude
1,065.616 km
Semi-major axis
7,475.422 km
Eccentricity
0.00424
Inclination
90.1396°
RAAN
303.3506°
Arg. of periapsis
145.6047°
True anomaly
242.44338°
Mean anomaly
242.8744°
Eccentric anomaly
242.65879°
Mean motion
3.35807 °/min
Orbital period
107.2 mins
BSTAR
0.00030599
Loading maneuver chart data...
Computing Atmospheric mass density...
Loading historical data...
Loading historical data...
Loading historical data...
Loading historical data...
Loading historical data...
Loading historical data...
Loading historical data...

Documentation

Showing up to 5 results
|